BAW4CD EHAM-EGFF

Flight info

Callsign BAW4CD
Flight time N/A
Altitude 36000
Route IDRID L980 LAM L179 ICTAM
Aircraft A319/M-SDE3FGHIRWY/LB1

Departure

Time 2026-05-07 12:32
Airport Amsterdam Airport Schiphol (EHAM)

Arrival

Time N/A
Airport Cardiff International Airport (EGFF)
Time Latitude Longitude Altitude Speed Heading
2026-05-07 12:05 52.30780 4.77353 11 ft 0 kts 183°
2026-05-07 12:19 52.30796 4.77354 11 ft 3 kts 183°
2026-05-07 12:19 52.30822 4.77352 11 ft 3 kts 156°
2026-05-07 12:19 52.30837 4.77321 12 ft 3 kts 102°
2026-05-07 12:19 52.30838 4.77310 12 ft 0 kts 90°
2026-05-07 12:22 52.30838 4.77316 12 ft 1 kts 90°
2026-05-07 12:22 52.30838 4.77343 12 ft 3 kts 90°
2026-05-07 12:23 52.30837 4.77410 10 ft 7 kts 93°
2026-05-07 12:23 52.30796 4.77464 9 ft 10 kts 185°
2026-05-07 12:23 52.30720 4.77458 9 ft 11 kts 182°
2026-05-07 12:23 52.30639 4.77414 8 ft 13 kts 229°
2026-05-07 12:24 52.30584 4.77274 7 ft 15 kts 237°
2026-05-07 12:24 52.30523 4.77115 5 ft 17 kts 239°
2026-05-07 12:24 52.30452 4.76930 1 ft 20 kts 238°
2026-05-07 12:24 52.30376 4.76731 0 ft 21 kts 237°
2026-05-07 12:25 52.30297 4.76527 -1 ft 21 kts 239°
2026-05-07 12:25 52.30219 4.76326 0 ft 20 kts 237°
2026-05-07 12:25 52.30143 4.76121 0 ft 20 kts 240°
2026-05-07 12:25 52.30067 4.75924 0 ft 20 kts 237°
2026-05-07 12:26 52.29989 4.75725 -1 ft 21 kts 238°
2026-05-07 12:26 52.29913 4.75518 0 ft 20 kts 237°
2026-05-07 12:26 52.29839 4.75319 0 ft 19 kts 250°
2026-05-07 12:26 52.29876 4.75135 2 ft 16 kts 312°
2026-05-07 12:27 52.29952 4.74989 2 ft 17 kts 309°
2026-05-07 12:27 52.30023 4.74850 1 ft 16 kts 313°
2026-05-07 12:27 52.30104 4.74708 -1 ft 18 kts 313°
2026-05-07 12:27 52.30197 4.74536 -6 ft 21 kts 310°
2026-05-07 12:28 52.30291 4.74362 -9 ft 15 kts 309°
2026-05-07 12:28 52.30313 4.74317 -10 ft 0 kts 311°
2026-05-07 12:28 52.30350 4.74244 -12 ft 16 kts 303°
2026-05-07 12:29 52.30352 4.74081 -12 ft 12 kts 232°
2026-05-07 12:29 52.30290 4.73994 -11 ft 12 kts 217°
2026-05-07 12:29 52.30217 4.73907 -11 ft 0 kts 216°
2026-05-07 12:30 52.30188 4.73825 -10 ft 10 kts 274°
2026-05-07 12:30 52.30217 4.73740 -8 ft 9 kts 353°
2026-05-07 12:30 52.30231 4.73738 -8 ft 0 kts
2026-05-07 12:31 52.30331 4.73741 -8 ft 46 kts
2026-05-07 12:31 52.30902 4.73794 -9 ft 116 kts
2026-05-07 12:32 52.31876 4.73897 217 ft 149 kts
2026-05-07 12:32 52.32875 4.74009 798 ft 152 kts
2026-05-07 12:32 52.33970 4.74113 1324 ft 165 kts 357°
2026-05-07 12:32 52.34923 4.73308 1454 ft 162 kts 303°
2026-05-07 12:33 52.34455 4.69489 2121 ft 205 kts 241°
2026-05-07 12:33 52.33747 4.67362 2632 ft 225 kts 244°
2026-05-07 12:33 52.33023 4.64986 3229 ft 243 kts 245°
2026-05-07 12:34 52.32274 4.62432 3836 ft 261 kts 245°
2026-05-07 12:34 52.31493 4.59722 4631 ft 271 kts 245°
2026-05-07 12:34 52.30693 4.56927 5631 ft 273 kts 245°
2026-05-07 12:34 52.29902 4.54151 6612 ft 276 kts 245°
2026-05-07 12:35 52.29101 4.51339 7602 ft 278 kts 245°
2026-05-07 12:35 52.28292 4.48499 8531 ft 281 kts 245°
2026-05-07 12:35 52.27465 4.45598 9453 ft 283 kts 245°
2026-05-07 12:35 52.26643 4.42714 10291 ft 286 kts 245°
2026-05-07 12:36 52.25789 4.39728 10861 ft 298 kts 245°
2026-05-07 12:36 52.24898 4.36613 11258 ft 316 kts 245°
2026-05-07 12:36 52.23942 4.33272 11609 ft 334 kts 245°
2026-05-07 12:36 52.22931 4.29745 12030 ft 348 kts 245°
2026-05-07 12:37 52.21914 4.26202 12719 ft 353 kts 245°
2026-05-07 12:37 52.20869 4.22568 13437 ft 357 kts 245°
2026-05-07 12:37 52.19821 4.18924 14129 ft 360 kts 245°
2026-05-07 12:37 52.18751 4.15208 14851 ft 364 kts 245°
2026-05-07 12:38 52.17683 4.11505 15544 ft 367 kts 245°
2026-05-07 12:38 52.16600 4.07753 16225 ft 369 kts 245°
2026-05-07 12:38 52.15510 4.03986 16871 ft 372 kts 245°
2026-05-07 12:38 52.14400 4.00155 17513 ft 376 kts 245°
2026-05-07 12:39 52.13280 3.96303 18134 ft 379 kts 245°
2026-05-07 12:39 52.12168 3.92480 18732 ft 382 kts 245°
2026-05-07 12:39 52.11029 3.88566 19330 ft 384 kts 245°
2026-05-07 12:39 52.09876 3.84609 19904 ft 388 kts 245°
2026-05-07 12:40 52.08737 3.80708 20463 ft 390 kts 245°
2026-05-07 12:40 52.07570 3.76720 21014 ft 393 kts 245°
2026-05-07 12:40 52.06388 3.72686 21544 ft 396 kts 245°
2026-05-07 12:40 52.05206 3.68659 22054 ft 399 kts 245°
2026-05-07 12:41 52.04018 3.64620 22537 ft 402 kts 244°
2026-05-07 12:41 52.02806 3.60512 23016 ft 405 kts 244°
2026-05-07 12:41 52.01595 3.56410 23494 ft 408 kts 244°
2026-05-07 12:41 52.00309 3.52306 23960 ft 411 kts 241°
2026-05-07 12:42 51.98867 3.48334 24420 ft 413 kts 238°
2026-05-07 12:42 51.97241 3.44442 24863 ft 416 kts 234°
2026-05-07 12:42 51.95538 3.40666 25284 ft 419 kts 234°
2026-05-07 12:42 51.93803 3.36831 25715 ft 422 kts 234°
2026-05-07 12:43 51.92091 3.33048 26138 ft 425 kts 233°
2026-05-07 12:43 51.90340 3.29185 26559 ft 427 kts 233°
2026-05-07 12:43 51.88568 3.25285 26960 ft 430 kts 233°
2026-05-07 12:43 51.86836 3.21360 27320 ft 433 kts 238°
2026-05-07 12:44 51.85464 3.17024 27661 ft 436 kts 248°
2026-05-07 12:44 51.84602 3.12386 28008 ft 439 kts 258°
2026-05-07 12:44 51.84181 3.07493 28377 ft 442 kts 264°
2026-05-07 12:44 51.83874 3.02554 28732 ft 444 kts 264°
2026-05-07 12:45 51.83578 2.97596 29063 ft 447 kts 264°
2026-05-07 12:45 51.83271 2.92582 29427 ft 449 kts 264°
2026-05-07 12:45 51.82954 2.87585 29899 ft 448 kts 264°
2026-05-07 12:45 51.82632 2.82625 30375 ft 447 kts 264°
2026-05-07 12:46 51.82304 2.77665 30820 ft 447 kts 264°
2026-05-07 12:46 51.81971 2.72711 31228 ft 446 kts 263°
2026-05-07 12:46 51.81632 2.67723 31631 ft 445 kts 263°
2026-05-07 12:46 51.81294 2.62795 32038 ft 444 kts 263°
2026-05-07 12:47 51.80951 2.57855 32440 ft 443 kts 263°
2026-05-07 12:47 51.80609 2.52944 32833 ft 442 kts 263°
2026-05-07 12:47 51.80268 2.48073 33206 ft 441 kts 263°
2026-05-07 12:47 51.79921 2.43141 33573 ft 440 kts 263°
2026-05-07 12:48 51.79577 2.38268 33923 ft 439 kts 263°
2026-05-07 12:48 51.79229 2.33345 34230 ft 440 kts 262°
2026-05-07 12:48 51.78880 2.28485 34520 ft 440 kts 262°
2026-05-07 12:48 51.78529 2.23609 34783 ft 441 kts 262°
2026-05-07 12:49 51.78199 2.18680 35006 ft 442 kts 264°
2026-05-07 12:49 51.77911 2.13801 35222 ft 443 kts 264°
2026-05-07 12:49 51.77627 2.08838 35437 ft 443 kts 264°
2026-05-07 12:49 51.77343 2.03912 35628 ft 444 kts 264°
2026-05-07 12:50 51.77051 1.98938 35811 ft 445 kts 264°
2026-05-07 12:50 51.76761 1.94044 35987 ft 446 kts 264°
2026-05-07 12:50 51.76159 1.84105 36063 ft 447 kts 264°
2026-05-07 12:51 51.75548 1.74147 36066 ft 448 kts 264°
2026-05-07 12:51 51.74923 1.64150 36061 ft 448 kts 264°
2026-05-07 12:52 51.74295 1.54225 36055 ft 447 kts 264°